Weather in Keszthely

Hungary     46°46′06″N   17°14′32″E
temp.,
°C
wind,
m/s
gust,
m/s
humid.,
%
clouds,
%
prec.,
mm/h
press.,
hPa
HPBL,
m
11 april, sun
sun1123:00+8s4107617 0.0 1019234
02:00+9ssw6146793 0.0 1018454
05:00+8s61572100 0.0 1018420
08:00+9s5136656 0.0 1019466
11:00+13s71146100 0.0 1018773
14:00+13s71258100 0.0 1019891
17:00+15s711523 0.0 10171259
20:00+12s5125834 0.0 1017483
12 april, mon
mon1223:00+11ssw4106016 0.0 1018466
02:00+9ssw5147851 0.0 1018405
05:00+8ssw49845 0.0 1017214
08:00+10s48763 0.0 1018288
11:00+17ssw685318 0.0 10171225
14:00+17ssw6760100 0.1 10171006
17:00+12w2790100 3.2 1017305
20:00+12n5887100 3.3 1018370
13 april, tue
tue1323:00+5n91583100 0.3 1020472
02:00+4n101883100 0.4 1022715
05:00+4n101887100 0.0 1021725
08:00+4n91685100 0.1 1021796
11:00+3nnw101793100 1.3 1021803
14:00+3n111895100 4.6 1020972
17:00+3n101895100 2.4 10201106
20:00+3nnw101996100 4.2 10211180
14 april, wed
wed1423:00+3nnw111989100 0.6 10211124
02:00+3nnw101885100 0.6 10211089
05:00+3nnw101875100 0.0 10211212
08:00+4nnw101778100 0.0 10211301
11:00+7nnw101568100 0.1 10201589
14:00+7n91569100 0.4 10201681
17:00+7n81465100 0.4 10201709
20:00+5nnw71371100 0.5 10211210
15 april, thu
thu1523:00+4nnw71474100 0.0 10211132
02:00+3nnw71375100 0.0 1021930
05:00+2nnw71491100 0.1 1021809
08:00+3nnw71383100 0.2 1021943
11:00+5nnw81279100 0.2 10221122
14:00+5nnw81273100 0.4 10221209
17:00+6n81372100 0.1 10221211
20:00+4n61387100 0.1 1023784